Regional Weather Roundup
Issued by NWS Albany, NY

Home | Current Version | Previous Version | Graphics & Text | Print | Product List | Glossary On
Versions: 1 2 3 4 5 6 7 8 9 10 11 12 13 14 15 16 17 18 19 20 21 22 23 24 25 26 27 28
000
ASUS41 KALY 292010
RWRALY

NEW YORK STATE HOURLY WEATHER ROUNDUP
NATIONAL WEATHER SERVICE ALBANY NY
400 PM EDT FRI APR 29 2016

NOTE: "FAIR" INDICATES FEW OR NO CLOUDS BELOW 12,000 FEET WITH NO
SIGNIFICANT WEATHER AND/OR NO OBSTRUCTIONS TO VISIBILITY.

NYZ032-033-038>043-046>054-057>066-NYZ062>081-082-084-292100-
EAST


CITY           SKY/WX    TMP DP  RH WIND       PRES   REMARKS
ALBANY         CLOUDY    58  36  43 SW9       30.06S
GLENS FALLS    CLOUDY    60  32  34 VRB6      30.04S
POUGHKEEPSIE   CLOUDY    58  30  34 SE8       30.06F
MONTGOMERY     CLOUDY    57  33  40 S7        30.06S
WHITE PLAINS   CLOUDY    53  34  48 E10       30.08S
ISLIP          PTSUNNY   54  28  36 SE14      30.08S
NEW YORK CITY  CLOUDY    55  37  50 E12G21    30.09R
CENTRAL PARK   CLOUDY    55  34  45 NE8       30.11R
$$

NYZ005>009-017-018-044>046-055-056-292100-
CENTRAL


CITY           SKY/WX    TMP DP  RH WIND       PRES   REMARKS
FULTON         LGT RAIN  53  41  63 SW6       30.07R
SYRACUSE       LGT RAIN  50  43  77 CALM      30.06S
ROME           LGT RAIN  50  43  77 S6        30.08R
ELMIRA         LGT RAIN  51  40  65 SW8       30.02S
BINGHAMTON     CLOUDY    50  35  56 SE10      30.01F
MONTICELLO     CLOUDY    52  30  43 S9        30.07R
$$

NYZ026>034-041>043-087-292100-
NORTH


CITY           SKY/WX    TMP DP  RH WIND       PRES   REMARKS
WATERTOWN      CLOUDY    56  26  31 N13       30.05S
FORT DRUM      NOT AVBL
MASSENA        SUNNY     53  18  25 E7        30.11S
SARANAC LAKE   SUNNY     57  17  21 VRB3      30.00F
PLATTSBURGH    SUNNY     52  21  29 NE10      30.09F
$$

NYZ001>004-010>016-019>021-085-292100-
WEST


CITY           SKY/WX    TMP DP  RH WIND       PRES   REMARKS
BUFFALO        CLOUDY    47  34  60 NE10      30.05R
DUNKIRK        LGT RAIN  46  37  71 N9        30.05R
JAMESTOWN      CLOUDY    43  37  81 NW13      30.01R
WELLSVILLE     LGT RAIN  44  42  93 SE7       30.00S
ROCHESTER      CLOUDY    49  32  52 NE8       30.05F
PENN YAN       CLOUDY    51  39  63 CALM      30.03S
$$

             KEY
       WCI = WIND CHILL INDEX
       VSB = VISIBILITY
       HX  = HEAT INDEX
$$




USA.gov is the U.S. government's official web portal to all federal, state and local government web resources and services.